Temp
34 33 33 33 32 33 32 32 32 32 31 31 31 31 31 31 31 31 32 32 32 32 32 32 32 32 33 32 31 31 32 31 32 33 32 32 32 32 34 33 33 32
32 33 33 33 32 33 32 32 32 31 30 30 30 29 30 30 30 29 30 30 31 31 31 31 31 31 31 31 31 30 31 30 30 32 31 31 31 31 31 31 31 31
30 30 30 31 31 30 30 30 31 30 30 29 28 29 31 29 30 29 29 29 29 30 29 29 29 29 30 29 30 30 30 30 30 30 30 30 30 30 31 30 31 30
28 28 28 28 29 29 28 29 28 29 28 29 28 29 29 30 28 28 28 29 28 29 29 29 29 29 29 29 29 29 29 29 29 29 29 30 30 30 30 30 31 31
28 28 28 28 27 28 29 29 29 29 29 28 29 29 29 29 29 29 29 28 27 27 27 27 27 28 28 29 28 29 29 29 29 29 29 29 30 30 31 30 29 29
28 27 27 28 27 29 31 29 29 29 29 29 29 29 28 28 28 29 29 29 29 29 29 29 29 28 27 27 27 26 27 28 29 28 28 28 29 30 30 30 29 29
29 28 28 28 28 27 30 28 28 29 28 27 27 29 27 28 28 27 27 27 27 28 28 28 28 28 29 28 28 28 27 26 27 27 27 28 28 29 30 29 29 29
29 28 28 27 27 25 27 26 26 27 26 27 27 28 27 27 28 28 28 27 27 28 28 28 28 28 28 28 27 28 28 29 28 27 27 27 27 27 28 29 29 29
27 27 26 26 27 26 26 26 26 26 26 26 27 27 26 26 26 26 26 26 26 27 27 27 28 27 28 27 27 27 27 27 28 27 27 26 27 27 27 28 28 28
27 25 26 25 27 25 25 26 25 26 26 26 26 26 26 27 25 25 25 25 25 25 25 26 26 27 27 26 26 26 26 26 27 27 27 26 26 27 27 27 27 27
28 25 26 25 24 24 25 25 25 25 25 24 25 25 25 25 25 24 25 25 25 25 25 25 26 25 25 26 26 26 26 26 26 26 26 27 27 27 28 27 27 27
25 24 25 24 24 24 24 25 24 24 24 24 24 24 24 24 24 24 24 24 25 25 25 25 25 25 25 25 25 25 25 26 26 26 26 26 27 27 27 27 27 27
25 26 26 25 25 25 24 24 24 24 24 24 24 23 24 24 24 24 24 24 24 24 25 25 25 25 25 25 25 25 25 25 25 25 26 26 27 27 27 27 28 28
25 25 25 25 25 24 24 24 24 23 23 23 23 23 23 23 23 23 23 23 23 24 24 24 24 24 24 24 25 25 25 25 25 25 25 25 26 26 27 27 27 27
25 25 25 24 23 23 22 22 22 22 22 21 21 21 22 22 22 22 21 21 22 22 22 23 23 23 24 24 24 24 25 24 24 24 24 24 24 25 25 26 26 27
24 23 23 22 22 21 21 20 20 20 19 19 19 18 18 19 19 19 20 19 19 20 20 20 21 22 23 26 27 24 24 23 23 23 23 23 23 23 23 24 25 26
22 21 21 20 20 19 17 17 18 16 16 16 16 16 16 16 17 17 17 18 17 17 17 17 18 19 22 24 25 26 24 22 21 21 22 21 21 21 21 22 24 25
20 18 17 16 16 15 15 13 14 13 13 13 13 13 14 14 14 15 15 15 15 15 14 15 15 18 21 22 24 24 25 22 21 20 20 20 20 20 20 21 21 22
16 14 13 12 13 12 12 11 11 11 10 10 10 11 12 11 13 12 12 12 12 12 12 12 13 17 19 21 22 23 24 23 20 19 18 18 19 19 19 19 20 20
14 11 11 10 10 10 10 9 9 9 9 9 9 10 9 9 9 9 10 10 10 10 10 10 11 14 19 21 21 22 22 22 19 18 18 18 17 17 17 17 17 16
12 11 9 9 9 8 7 7 7 7 7 8 7 8 7 7 7 6 7 7 7 8 8 8 9 16 18 19 20 21 21 21 18 17 16 15 16 16 16 16 16 17
10 8 7 6 8 6 5 6 6 5 5 6 6 6 6 6 6 6 6 5 6 6 6 6 8 15 17 18 19 20 21 17 16 14 14 14 14 15 16 17 17 17
10 8 6 5 5 4 4 4 5 4 4 5 4 4 5 4 4 4 5 5 5 5 5 5 5 11 15 17 18 19 18 14 14 13 13 13 14 15 16 16 17 17
8 5 4 3 2 2 2 4 4 4 3 3 3 3 3 3 3 3 4 4 4 3 4 4 4 9 15 16 17 18 18 14 13 12 12 12 13 15 16 16 17 19
5 4 3 1 1 2 1 1 1 2 3 2 2 1 2 2 3 2 2 2 3 3 7 6 4 7 13 15 16 18 16 14 13 13 12 12 13 13 15 15 16 17
3 2 1 -0 1 1 1 1 1 1 0 1 1 1 1 1 1 1 0 1 2 2 3 4 3 4 7 14 16 18 19 15 14 12 11 12 12 12 12 13 15 15
MSLP
1027.39 1027.47 1027.51 1027.47 1027.43 1027.35 1027.23 1027.15 1027.19 1027.11 1027.15 1027.15 1027.15 1027.27 1027.39 1027.47 1027.39 1027.23 1027.03 1026.79 1026.67 1026.63 1026.55 1026.43 1026.27 1026.11 1025.95 1025.83 1025.71 1025.51 1025.31 1025.19 1025.03 1024.87 1024.75 1024.59 1024.43 1024.35 1024.19 1024.15 1024.03 1024.07
1027.55 1027.55 1027.55 1027.51 1027.43 1027.39 1027.31 1027.27 1027.31 1027.31 1027.39 1027.43 1027.47 1027.51 1027.55 1027.55 1027.51 1027.39 1027.15 1026.95 1026.83 1026.79 1026.75 1026.59 1026.51 1026.39 1026.23 1026.07 1025.87 1025.67 1025.47 1025.39 1025.23 1025.19 1025.03 1024.75 1024.59 1024.39 1024.11 1024.07 1023.99 1023.91
1027.71 1027.67 1027.71 1027.67 1027.67 1027.63 1027.59 1027.59 1027.63 1027.67 1027.67 1027.67 1027.67 1027.63 1027.63 1027.63 1027.51 1027.35 1027.19 1027.03 1026.99 1026.95 1026.87 1026.79 1026.63 1026.51 1026.39 1026.27 1026.07 1025.91 1025.71 1025.47 1025.35 1025.27 1025.15 1024.91 1024.75 1024.55 1024.31 1024.23 1024.03 1023.79
1028.03 1028.03 1028.03 1028.03 1027.95 1027.79 1027.79 1027.75 1027.79 1027.79 1027.79 1027.71 1027.75 1027.83 1027.83 1027.75 1027.55 1027.35 1027.19 1027.15 1027.11 1027.07 1026.99 1026.83 1026.71 1026.59 1026.47 1026.35 1026.19 1026.03 1025.87 1025.71 1025.63 1025.43 1025.19 1024.91 1024.75 1024.63 1024.43 1024.27 1024.11 1023.91
1027.99 1028.07 1028.11 1028.03 1027.95 1027.83 1027.87 1027.83 1027.79 1027.75 1027.67 1027.71 1027.67 1027.63 1027.59 1027.43 1027.27 1027.15 1027.11 1027.11 1027.11 1027.07 1026.99 1026.91 1026.83 1026.75 1026.63 1026.47 1026.35 1026.15 1025.95 1025.83 1025.67 1025.55 1025.39 1025.11 1024.83 1024.67 1024.43 1024.27 1024.11 1023.95
1028.07 1028.03 1027.95 1027.83 1027.95 1027.87 1027.79 1027.75 1027.71 1027.67 1027.67 1027.63 1027.71 1027.71 1027.63 1027.55 1027.43 1027.31 1027.23 1027.11 1027.03 1026.95 1026.83 1026.71 1026.67 1026.63 1026.63 1026.51 1026.43 1026.35 1026.19 1026.03 1025.83 1025.67 1025.47 1025.23 1024.87 1024.67 1024.59 1024.35 1024.15 1023.83
1027.87 1027.91 1027.95 1028.03 1027.99 1027.99 1027.87 1027.87 1027.83 1027.83 1027.83 1027.95 1027.87 1027.71 1027.79 1027.67 1027.59 1027.59 1027.55 1027.51 1027.47 1027.31 1027.23 1027.11 1026.91 1026.67 1026.59 1026.51 1026.35 1026.19 1026.07 1025.99 1025.83 1025.71 1025.59 1025.35 1025.11 1024.59 1024.39 1024.31 1024.11 1023.91
1028.11 1028.19 1028.23 1028.15 1028.03 1027.99 1027.91 1027.91 1027.91 1027.91 1027.99 1027.91 1027.83 1027.83 1027.87 1027.75 1027.67 1027.63 1027.55 1027.51 1027.39 1027.23 1027.11 1026.99 1026.87 1026.71 1026.63 1026.55 1026.43 1026.23 1025.95 1025.83 1025.79 1025.63 1025.47 1025.23 1025.03 1024.79 1024.43 1024.27 1023.99 1023.75
1028.23 1028.23 1028.23 1028.11 1027.99 1027.95 1027.87 1027.91 1027.95 1027.91 1027.99 1027.95 1027.91 1027.95 1027.99 1027.95 1027.87 1027.79 1027.71 1027.67 1027.59 1027.47 1027.31 1027.15 1026.95 1026.83 1026.71 1026.67 1026.51 1026.35 1026.15 1025.83 1025.71 1025.63 1025.43 1025.15 1024.83 1024.51 1024.31 1024.11 1023.91 1023.63
1028.07 1028.15 1028.07 1028.03 1027.99 1028.03 1028.03 1028.07 1028.11 1028.11 1028.15 1028.15 1028.11 1028.15 1028.03 1027.99 1028.03 1027.91 1027.87 1027.79 1027.71 1027.55 1027.47 1027.31 1027.15 1027.03 1026.87 1026.79 1026.67 1026.43 1026.23 1025.99 1025.71 1025.55 1025.31 1025.07 1024.87 1024.47 1024.11 1023.95 1023.75 1023.39
1027.99 1028.11 1028.11 1028.11 1028.19 1028.23 1028.27 1028.31 1028.35 1028.35 1028.35 1028.35 1028.31 1028.27 1028.19 1028.11 1028.03 1028.03 1027.87 1027.79 1027.71 1027.55 1027.43 1027.31 1027.19 1027.07 1026.91 1026.71 1026.55 1026.43 1026.27 1025.99 1025.71 1025.47 1025.19 1024.91 1024.63 1024.35 1024.11 1023.95 1023.63 1023.35
1028.15 1028.23 1028.27 1028.35 1028.39 1028.43 1028.47 1028.51 1028.55 1028.55 1028.55 1028.55 1028.47 1028.35 1028.23 1028.23 1028.11 1028.03 1027.99 1027.79 1027.71 1027.55 1027.39 1027.27 1027.15 1027.03 1026.87 1026.63 1026.47 1026.31 1026.11 1025.83 1025.55 1025.27 1024.95 1024.67 1024.35 1024.03 1023.83 1023.63 1023.43 1023.07
1028.35 1028.43 1028.51 1028.55 1028.59 1028.63 1028.67 1028.67 1028.63 1028.67 1028.63 1028.59 1028.51 1028.47 1028.35 1028.23 1028.15 1028.11 1027.99 1027.87 1027.67 1027.55 1027.39 1027.23 1027.11 1026.95 1026.75 1026.51 1026.35 1026.19 1025.95 1025.59 1025.27 1024.91 1024.63 1024.31 1023.95 1023.67 1023.43 1023.19 1022.95 1022.71
1028.59 1028.63 1028.67 1028.67 1028.71 1028.75 1028.75 1028.79 1028.79 1028.79 1028.75 1028.67 1028.59 1028.51 1028.43 1028.35 1028.27 1028.15 1027.99 1027.91 1027.67 1027.51 1027.39 1027.27 1027.07 1026.87 1026.63 1026.47 1026.27 1026.03 1025.67 1025.31 1024.95 1024.63 1024.27 1023.91 1023.63 1023.31 1023.07 1022.75 1022.51 1022.27
1028.71 1028.67 1028.67 1028.71 1028.79 1028.87 1028.91 1028.95 1029.03 1028.99 1028.95 1028.87 1028.75 1028.71 1028.59 1028.55 1028.43 1028.27 1028.03 1027.75 1027.63 1027.55 1027.39 1027.27 1027.11 1026.87 1026.63 1026.51 1026.23 1025.75 1025.51 1025.15 1024.75 1024.43 1024.11 1023.75 1023.31 1022.95 1022.63 1022.39 1022.19 1021.95
1028.79 1028.83 1028.87 1028.95 1028.99 1029.03 1029.07 1029.11 1029.11 1029.03 1028.91 1028.83 1028.75 1028.75 1028.71 1028.59 1028.51 1028.43 1028.27 1027.99 1027.67 1027.47 1027.43 1027.35 1027.15 1026.95 1026.79 1026.55 1026.27 1025.91 1025.43 1025.03 1024.63 1024.27 1023.95 1023.59 1023.15 1022.67 1022.23 1022.07 1021.83 1021.63
1028.95 1029.03 1029.07 1029.07 1029.19 1029.23 1029.23 1029.23 1029.15 1029.07 1028.95 1028.79 1028.71 1028.67 1028.59 1028.47 1028.47 1028.39 1028.23 1028.15 1027.99 1027.75 1027.59 1027.47 1027.35 1027.15 1026.83 1026.51 1026.15 1025.79 1025.51 1025.03 1024.55 1024.03 1023.75 1023.43 1023.11 1022.75 1022.27 1021.75 1021.39 1021.23
1029.03 1029.15 1029.11 1029.23 1029.31 1029.31 1029.39 1029.43 1029.39 1029.31 1029.19 1029.11 1029.03 1028.83 1028.75 1028.75 1028.67 1028.51 1028.43 1028.31 1028.11 1027.95 1027.87 1027.71 1027.47 1027.31 1026.95 1026.47 1026.03 1025.63 1025.39 1025.03 1024.47 1023.95 1023.55 1023.19 1022.95 1022.63 1022.23 1021.79 1021.35 1020.99
1029.23 1029.23 1029.31 1029.39 1029.51 1029.63 1029.63 1029.63 1029.55 1029.51 1029.43 1029.39 1029.31 1029.27 1029.11 1028.99 1028.87 1028.79 1028.67 1028.55 1028.39 1028.15 1027.91 1027.75 1027.59 1027.27 1026.91 1026.35 1025.87 1025.47 1025.15 1024.87 1024.43 1023.99 1023.63 1023.11 1022.87 1022.63 1022.31 1021.95 1021.55 1021.19
1029.47 1029.51 1029.51 1029.63 1029.79 1029.83 1029.87 1029.83 1029.83 1029.75 1029.75 1029.71 1029.55 1029.39 1029.35 1029.23 1029.11 1028.99 1028.87 1028.71 1028.59 1028.43 1028.07 1027.79 1027.59 1027.19 1026.63 1026.07 1025.67 1025.31 1024.95 1024.59 1024.15 1023.75 1023.43 1023.11 1022.91 1022.75 1022.47 1022.19 1021.95 1021.67
1029.43 1029.47 1029.59 1029.75 1029.91 1029.99 1030.03 1030.07 1030.03 1029.99 1029.91 1029.83 1029.75 1029.67 1029.51 1029.35 1029.15 1028.95 1028.83 1028.79 1028.67 1028.51 1028.23 1027.75 1027.51 1027.03 1026.39 1025.95 1025.55 1025.19 1024.71 1024.27 1023.87 1023.63 1023.35 1023.11 1022.95 1022.75 1022.47 1022.15 1021.79 1021.43
1029.43 1029.55 1029.75 1029.99 1030.03 1030.15 1030.19 1030.15 1030.19 1030.19 1030.07 1029.91 1029.87 1029.75 1029.63 1029.43 1029.19 1029.15 1028.91 1028.75 1028.67 1028.51 1028.15 1027.67 1027.27 1026.95 1026.43 1025.95 1025.47 1024.95 1024.47 1024.07 1023.87 1023.63 1023.31 1022.99 1022.67 1022.39 1022.11 1021.75 1021.43 1021.15
1029.75 1029.83 1029.95 1030.11 1030.23 1030.23 1030.27 1030.31 1030.23 1030.19 1030.19 1030.15 1029.99 1029.79 1029.63 1029.39 1029.27 1029.11 1028.95 1028.79 1028.55 1028.43 1028.15 1027.51 1027.15 1026.91 1026.35 1025.71 1025.19 1024.75 1024.35 1024.07 1023.75 1023.31 1022.95 1022.67 1022.31 1022.07 1021.71 1021.35 1021.03 1020.75
1030.03 1030.11 1030.19 1030.31 1030.43 1030.47 1030.43 1030.43 1030.39 1030.39 1030.35 1030.23 1030.15 1029.79 1029.55 1029.43 1029.23 1028.99 1028.87 1028.79 1028.51 1028.23 1028.11 1027.59 1026.79 1026.55 1026.07 1025.43 1025.03 1024.55 1024.15 1023.67 1023.43 1023.15 1022.63 1022.31 1021.83 1021.55 1021.27 1020.87 1020.59 1020.35
1030.23 1030.35 1030.43 1030.47 1030.55 1030.55 1030.55 1030.51 1030.47 1030.43 1030.27 1030.23 1030.11 1029.91 1029.59 1029.35 1029.15 1028.95 1028.67 1028.55 1028.35 1028.03 1027.71 1027.31 1026.63 1026.31 1025.99 1025.31 1024.71 1024.19 1023.71 1023.31 1022.95 1022.59 1022.15 1021.79 1021.47 1020.99 1020.87 1020.59 1020.15 1019.95
1030.39 1030.47 1030.55 1030.55 1030.55 1030.51 1030.55 1030.55 1030.47 1030.39 1030.23 1030.11 1029.95 1029.83 1029.51 1029.27 1029.11 1028.91 1028.59 1028.19 1028.03 1027.83 1027.51 1027.19 1026.67 1026.07 1025.87 1024.95 1024.31 1023.71 1023.19 1022.79 1022.39 1022.15 1021.67 1021.31 1020.99 1020.63 1020.11 1019.75 1019.47 1019.03
Wind_Speed
6 5 6 6 5 5 6 6 6 7 6 6 7 6 6 5 6 7 6 7 7 7 7 7 7 8 8 7 6 6 5 5 5 6 6 5 5 4 5 5 5 4
5 5 4 5 5 5 6 6 6 6 6 5 4 4 4 4 5 4 6 7 6 7 6 7 7 7 7 7 7 7 7 6 6 4 6 6 5 5 5 5 4 4
5 5 5 6 6 4 4 4 4 4 4 3 4 4 4 4 5 5 5 5 6 6 6 5 6 6 6 6 6 6 7 7 7 6 5 5 5 4 5 5 5 4
4 4 4 3 4 4 3 4 4 4 3 5 4 2 1 2 3 4 4 5 5 6 6 6 6 6 6 6 6 7 6 6 5 6 7 6 5 4 6 4 5 6
4 4 4 4 3 4 4 4 5 4 5 4 4 5 5 6 6 6 6 5 4 5 4 4 4 5 5 6 6 7 8 8 7 6 7 8 7 6 7 6 6 6
3 3 4 4 4 5 6 6 5 6 6 6 6 6 6 6 7 8 9 10 10 9 10 9 8 6 5 5 5 4 5 6 7 8 8 9 9 7 6 6 7 9
4 4 4 4 4 4 5 4 4 4 5 4 4 6 5 6 6 6 5 6 6 7 7 8 8 10 8 8 8 8 7 5 5 5 7 8 8 11 8 7 7 8
1 1 1 2 3 3 4 3 4 4 4 4 5 5 5 6 6 6 6 8 8 9 9 9 9 9 8 7 9 10 10 7 8 9 9 9 7 8 9 8 9 10
1 1 1 1 3 2 4 4 4 4 4 4 5 5 5 5 5 6 6 6 6 7 8 8 9 9 8 8 9 9 10 10 9 9 10 11 11 11 10 8 9 9
1 0 2 2 4 3 4 4 4 4 4 4 4 5 6 5 4 5 5 5 6 6 6 6 7 7 8 7 7 8 9 10 10 10 10 10 10 11 12 11 10 11
0 1 2 3 3 3 4 4 4 4 4 4 4 5 4 5 5 4 5 5 6 7 7 7 7 7 7 7 6 6 7 9 9 9 10 11 11 11 10 11 11 12
1 1 2 2 2 3 3 3 3 3 3 3 4 5 4 4 5 5 4 7 6 7 7 7 6 6 6 7 7 7 7 8 9 9 10 11 11 12 11 10 11 12
0 0 0 1 2 2 2 3 3 3 3 4 4 4 5 6 5 6 6 6 7 7 7 7 7 6 7 8 7 7 8 9 10 10 10 10 11 11 12 11 11 11
0 0 0 1 1 2 2 3 3 3 4 4 4 5 5 6 7 7 7 5 7 7 7 7 7 7 7 7 7 8 9 9 10 11 11 11 10 11 10 11 11 11
1 1 2 2 2 3 3 3 3 3 3 4 4 4 5 5 5 6 8 9 7 7 8 7 7 8 7 8 9 11 10 11 11 11 12 12 12 12 12 12 11 11
1 2 2 2 3 4 4 5 5 6 6 6 5 4 5 5 6 6 7 8 10 10 8 8 8 7 11 20 18 13 13 11 11 11 11 11 13 13 13 11 12 12
1 2 2 4 4 4 4 5 8 7 7 7 7 8 8 8 8 9 7 8 9 9 10 9 8 8 19 20 21 24 16 12 11 13 12 12 11 12 14 14 13 11
2 3 4 4 4 5 5 5 5 6 7 7 8 9 9 7 8 8 9 9 9 9 9 9 9 14 20 21 22 23 20 16 13 11 10 11 11 13 13 14 15 14
3 3 3 4 4 4 5 5 6 7 7 8 8 6 7 7 8 9 8 8 8 10 11 10 10 16 20 22 23 23 23 20 14 14 14 14 15 15 15 15 14 15
1 2 3 3 4 4 5 5 6 6 6 5 6 7 7 7 6 7 7 7 8 9 11 11 11 16 22 23 24 24 24 21 15 15 15 15 15 14 14 15 15 14
3 3 4 4 4 4 4 5 5 6 7 6 6 7 8 8 8 8 7 6 8 8 10 11 10 20 23 24 24 25 25 22 14 14 13 13 13 14 15 15 15 14
3 4 4 4 4 4 5 6 5 5 7 7 6 6 5 6 7 5 8 9 8 9 10 12 11 20 23 24 25 24 26 16 13 13 14 14 14 14 14 13 14 14
3 3 4 4 4 6 6 6 7 7 6 4 8 7 7 7 7 7 6 8 10 9 10 13 11 17 23 24 24 25 20 13 14 12 12 14 15 14 14 14 14 14
2 2 4 4 4 5 6 6 5 5 5 5 6 8 9 7 7 8 6 7 9 10 9 13 13 16 24 24 25 24 21 13 12 12 12 13 14 14 13 12 14 23
1 2 3 4 5 5 5 7 6 6 6 5 6 6 8 7 7 8 8 7 7 10 15 17 14 16 22 24 25 24 19 12 10 10 12 13 13 14 14 14 15 16
1 2 3 4 6 6 5 6 5 6 6 6 6 6 7 7 7 7 10 9 8 9 10 11 14 13 14 25 24 24 25 15 11 11 13 14 13 13 13 12 12 12
Wind_Direction
67 63 68 64 61 62 56 53 42 49 42 35 38 17 18 355 358 5 1 7 9 9 4 3 1 3 0 0 4 1 8 3 358 351 351 353 351 347 332 326 322 309
60 61 63 63 57 49 47 53 46 51 37 36 27 17 2 8 357 4 0 1 3 3 357 358 359 357 357 357 354 358 352 1 354 349 346 342 334 334 325 318 304 299
59 58 57 61 64 58 57 46 58 49 49 20 13 13 3 359 355 357 1 3 357 354 354 353 351 352 351 349 350 351 349 346 347 340 341 330 321 323 308 307 304 294
63 72 77 73 68 67 59 57 36 43 42 31 19 344 354 329 348 352 356 357 357 348 346 349 349 345 347 345 346 347 340 336 329 333 332 324 326 315 307 305 297 301
81 63 58 61 47 44 42 36 24 15 19 8 359 5 4 359 1 360 358 355 356 342 339 337 335 337 337 341 347 343 342 336 335 339 331 323 320 327 316 322 311 301
63 72 49 50 42 35 26 25 14 11 5 8 357 352 358 356 357 356 353 350 349 348 345 345 344 343 343 335 332 332 323 330 327 334 331 327 321 319 316 314 311 308
42 40 34 30 38 34 35 16 10 7 2 348 345 353 353 350 349 346 341 338 334 335 336 334 337 335 343 343 341 336 334 321 317 322 319 316 318 317 321 316 306 299
94 59 50 32 44 28 27 9 359 354 346 352 353 331 353 339 338 337 337 337 338 333 332 332 330 330 334 340 336 335 329 333 332 329 322 314 310 302 307 312 308 305
180 67 41 45 30 11 10 353 351 342 351 356 334 331 334 329 323 325 323 324 321 318 320 322 323 325 329 333 329 328 323 321 323 321 318 317 316 309 306 304 299 294
112 359 31 29 10 357 355 337 342 333 336 341 320 327 323 315 321 312 314 313 309 306 306 306 311 313 316 318 315 314 312 310 311 311 307 303 299 301 305 307 301 298
7 29 24 357 349 343 331 328 326 324 324 321 318 317 310 313 311 312 308 312 313 311 311 310 307 308 307 304 300 297 296 297 297 296 295 294 291 291 290 292 292 289
339 10 355 327 322 321 320 317 317 321 318 314 314 312 314 311 312 319 318 314 316 311 309 308 308 307 301 298 298 297 291 289 288 287 286 285 286 285 284 282 283 284
309 302 285 302 315 317 326 340 344 337 336 329 325 321 319 322 323 322 322 315 312 311 311 312 314 310 306 302 302 297 292 290 288 285 281 281 280 280 280 278 276 277
232 273 339 339 333 359 360 3 354 340 335 324 326 326 325 327 329 326 321 319 312 314 313 317 315 314 309 310 308 304 299 292 290 290 289 284 281 279 277 275 274 273
329 352 20 3 14 15 17 3 347 328 322 321 317 319 324 323 325 327 325 321 318 319 323 324 322 319 322 324 319 312 307 302 300 295 294 292 287 283 279 278 275 275
35 18 13 12 18 11 5 351 341 337 333 333 333 328 329 329 332 331 322 322 325 325 329 329 323 322 321 320 318 314 312 307 299 293 291 290 290 290 287 281 280 277
63 26 14 20 9 3 356 352 346 342 340 337 338 340 338 340 337 330 335 331 327 326 326 326 321 320 319 318 316 313 311 304 298 296 294 291 289 291 293 294 290 284
35 22 17 9 6 1 352 346 340 340 338 336 335 335 336 336 332 332 332 331 325 324 320 320 317 316 316 314 313 311 309 305 300 296 295 290 291 291 291 294 295 296
34 24 11 4 360 352 342 343 342 335 336 336 331 330 326 329 327 329 325 328 325 322 319 316 311 313 313 312 310 309 308 305 298 295 295 295 296 297 297 298 301 301
52 27 13 357 350 346 345 338 338 330 327 323 319 325 324 318 318 316 318 320 322 317 310 310 307 311 311 311 309 307 306 304 297 296 294 293 295 296 296 295 296 296
28 17 0 350 347 341 339 330 327 323 326 325 324 321 321 318 320 319 316 316 314 311 305 304 305 309 310 307 305 304 303 303 299 298 295 294 293 292 290 290 290 290
18 360 350 342 337 336 331 325 323 322 319 321 314 308 299 303 302 305 309 312 309 306 304 300 302 308 304 303 302 303 304 303 301 296 293 290 289 291 290 290 291 289
11 356 335 333 332 326 321 318 320 317 313 313 306 302 305 306 302 305 306 305 306 304 302 299 298 300 300 300 303 303 305 298 296 293 291 292 290 290 287 287 287 287
354 340 327 320 319 310 305 304 304 299 295 303 297 305 303 299 302 302 298 297 298 299 298 295 294 297 300 302 302 302 300 297 297 293 289 288 289 285 287 286 288 290
327 321 307 303 298 292 295 297 298 292 292 292 282 284 287 296 297 297 296 292 288 290 295 294 291 295 299 300 300 300 301 291 287 282 282 285 288 289 288 288 286 284
298 298 293 290 287 290 289 284 288 290 285 285 283 278 286 290 290 290 293 293 292 289 287 285 288 288 290 295 298 300 301 299 288 288 287 285 281 278 281 273 269 264